Wetbulb
60.55 60.40 60.51 60.55 60.99 61.40 61.60 61.80 61.87 62.09 62.24 62.20 61.94 62.21 62.43 62.56 62.18 61.43 61.58 64.39 66.45 76.69 75.74 72.33 71.05 68.55 67.96 65.59 68.37 66.19 59.20 57.00 55.59 56.89 58.48 62.68 62.89 65.98 67.10 63.62 64.71 65.65 65.81 67.83 70.35
60.25 60.31 60.11 60.25 60.41 60.80 60.99 61.25 61.45 61.43 61.49 61.49 61.53 62.04 62.48 62.66 61.49 61.58 71.20 75.25 74.30 77.14 70.07 68.25 66.15 68.06 64.30 65.06 66.73 61.30 58.50 58.33 60.66 60.84 60.20 62.01 62.84 64.08 63.26 62.71 62.88 64.51 67.21 69.26 69.63
60.23 60.21 59.94 60.08 60.30 60.35 60.67 60.90 61.08 60.99 60.99 61.05 61.32 61.87 62.37 62.19 61.53 64.56 75.79 77.41 76.72 76.86 69.80 68.87 68.60 66.85 62.97 64.09 64.97 64.34 59.12 62.99 62.80 63.34 63.86 62.31 63.11 65.52 62.71 60.65 63.27 63.19 65.89 68.35 68.46
60.07 60.02 60.16 59.99 60.19 60.25 60.36 60.57 60.80 60.48 60.48 60.51 61.20 62.07 62.50 61.06 56.32 65.35 77.84 77.75 78.83 73.15 69.43 68.45 65.52 61.36 60.51 61.27 64.29 60.87 64.32 62.70 64.16 65.62 64.17 62.77 65.25 63.75 63.86 63.63 66.08 66.72 67.57 67.87 67.52
59.98 59.80 59.76 59.68 59.65 59.93 60.25 60.14 60.02 59.68 60.01 60.54 61.16 62.36 59.03 55.07 60.67 72.08 78.40 78.24 71.20 70.83 68.52 67.02 64.88 62.76 61.28 63.44 63.33 60.72 61.65 62.75 64.13 64.16 63.38 64.89 63.41 63.24 63.85 66.18 66.74 67.06 67.22 66.50 67.29
59.51 59.37 59.30 59.18 59.34 59.65 59.76 59.46 59.15 59.30 59.74 60.57 61.43 62.65 59.50 55.48 68.60 73.20 74.50 72.84 71.87 69.53 68.33 67.43 66.27 66.95 63.44 63.06 60.39 62.28 63.35 62.04 62.77 62.18 63.47 63.03 62.68 63.33 63.99 66.16 65.61 65.78 64.80 65.48 66.69
59.07 58.99 58.85 58.92 58.96 59.03 58.74 58.33 58.50 58.84 59.54 60.43 61.59 62.61 56.73 55.36 69.27 72.03 73.69 72.11 72.30 71.44 67.79 69.72 70.17 67.11 63.79 62.35 65.20 62.89 58.93 62.00 62.19 63.41 62.21 64.24 60.66 60.26 64.01 65.26 64.21 64.68 64.96 65.47 66.13
58.62 58.55 58.55 58.44 58.50 58.09 57.55 57.17 57.77 59.08 59.98 61.46 62.36 59.39 51.85 63.03 69.73 69.46 70.42 68.41 71.69 73.42 71.68 71.45 70.68 67.15 63.78 63.95 62.87 59.54 58.34 54.87 61.72 63.21 62.71 60.32 54.20 61.82 64.22 63.62 62.70 64.11 64.93 65.47 64.96
57.85 57.77 57.80 57.66 57.39 56.74 55.83 56.26 58.11 60.51 61.35 63.73 58.21 53.05 52.21 69.38 65.69 68.52 69.93 68.34 68.53 70.09 71.74 73.77 69.44 63.24 60.80 58.02 55.19 56.05 51.04 54.57 58.83 62.93 62.20 58.36 55.66 62.04 64.15 62.96 62.57 63.62 64.04 64.36 64.44
57.32 57.04 56.90 56.81 56.37 55.56 54.91 56.29 57.98 59.53 61.31 62.95 60.66 51.03 55.30 58.25 66.18 69.90 71.04 70.90 67.66 67.09 66.59 67.09 64.76 60.79 55.32 52.15 48.55 52.22 52.17 55.28 56.25 58.69 60.20 58.74 56.93 61.59 62.82 62.66 62.49 62.84 63.36 64.20 64.51
56.73 56.33 56.29 55.97 55.51 54.50 52.70 53.59 52.23 51.24 51.02 49.92 49.36 52.43 55.74 58.99 60.18 62.51 65.37 67.13 66.73 62.21 56.98 59.29 54.48 53.04 56.45 57.52 58.45 57.97 55.80 55.07 57.76 60.80 57.43 56.92 57.80 59.86 61.94 62.22 61.73 61.32 63.10 63.71 64.38
56.21 55.96 55.64 55.17 54.46 54.07 50.75 52.53 54.24 53.52 48.95 53.76 54.56 53.30 55.13 55.00 53.46 55.80 62.12 61.26 60.89 57.66 57.84 55.41 52.19 58.11 57.69 58.45 57.55 57.90 56.62 55.21 58.49 60.93 57.33 55.50 57.01 59.87 60.83 61.80 62.36 62.74 63.37 64.54 65.22
55.78 55.52 54.92 54.19 53.63 53.26 53.23 54.35 58.02 57.16 48.32 51.18 53.34 53.91 54.68 55.65 53.76 53.23 58.76 61.07 59.21 56.38 56.54 52.87 56.61 59.99 57.90 56.01 53.73 53.42 54.99 55.61 55.17 59.04 58.32 56.15 54.70 57.64 60.10 62.22 63.07 64.04 64.72 65.82 65.85
55.42 55.23 54.23 52.37 52.17 53.16 53.91 55.58 57.80 53.96 42.51 47.23 47.84 51.93 54.81 55.37 51.67 56.53 61.23 60.29 55.40 54.91 55.82 54.68 58.39 56.92 55.07 53.53 53.32 48.97 55.66 56.29 57.15 53.56 48.90 56.17 46.88 54.65 58.38 58.41 61.24 62.56 63.25 65.07 66.12
54.87 54.33 53.12 52.08 48.02 52.49 54.86 58.19 57.06 52.45 34.89 50.61 48.13 53.78 52.41 52.85 53.62 55.11 57.87 55.67 53.02 52.60 51.89 52.21 54.72 54.04 52.45 53.23 54.65 52.50 55.77 52.76 53.99 50.13 47.13 53.46 47.28 52.25 57.51 55.82 58.39 61.60 63.05 64.62 66.15
54.06 53.36 52.55 51.03 49.16 54.22 56.66 54.93 52.01 42.85 37.59 48.60 49.78 47.30 48.48 47.88 51.51 54.01 55.21 55.77 55.78 52.40 51.93 52.71 56.21 54.05 53.83 55.76 54.18 55.82 52.94 50.37 47.84 45.84 42.12 47.93 48.44 46.32 54.69 56.86 58.86 61.56 62.94 64.40 65.63
52.77 51.86 50.69 53.03 49.63 54.07 54.56 50.07 41.90 37.69 48.56 46.39 45.64 47.72 45.17 46.64 48.13 50.75 51.52 49.43 48.03 46.06 46.41 51.37 52.52 54.20 54.34 51.32 54.79 52.12 45.90 41.39 41.60 40.21 40.93 44.53 45.97 50.22 57.92 59.88 60.37 60.83 61.91 63.64 65.47
51.21 50.53 51.35 53.01 51.70 54.74 50.72 45.14 36.02 46.24 43.54 46.97 46.87 47.49 45.88 46.59 46.74 46.58 45.55 47.51 47.89 49.35 46.68 46.50 46.81 51.43 54.79 51.98 50.68 49.97 47.09 42.18 37.56 38.45 42.05 46.30 43.98 49.89 58.04 61.82 62.11 62.76 62.89 63.45 63.68
50.63 49.75 51.16 55.62 55.34 53.77 46.89 37.92 39.66 43.52 47.22 45.65 45.23 43.09 43.19 46.15 46.11 47.21 43.93 43.57 46.45 45.95 46.20 43.89 46.43 54.34 53.89 55.16 53.55 51.09 46.71 48.88 43.36 39.45 40.73 44.74 48.64 52.98 56.76 60.52 61.31 61.50 62.18 62.57 63.37
46.94 49.48 52.55 57.82 57.38 50.20 43.18 38.68 41.91 46.60 48.85 46.11 40.44 42.47 40.02 42.91 43.96 43.81 42.91 47.03 48.23 49.63 44.35 44.85 43.04 51.00 55.34 53.17 53.36 51.32 53.01 46.33 42.58 38.96 37.52 43.13 45.39 46.62 50.37 54.87 59.42 60.86 61.53 62.02 63.67
50.17 50.27 55.55 54.81 52.78 47.02 39.91 40.33 46.15 50.03 49.94 45.02 42.72 41.49 41.81 41.53 42.29 42.08 44.29 48.55 49.47 48.91 49.43 44.34 42.74 44.51 46.78 47.44 49.03 48.37 47.03 47.26 46.03 43.23 40.93 39.26 43.70 51.12 51.30 52.19 56.20 60.96 62.39 61.29 62.69
48.75 47.60 56.20 54.78 45.70 40.89 39.50 43.61 48.63 49.05 50.10 47.45 46.39 45.69 43.81 45.12 41.22 42.02 44.58 46.04 50.07 47.70 45.24 46.57 41.92 39.99 43.67 48.47 52.27 50.94 49.01 48.08 45.60 42.37 42.48 42.78 46.67 54.19 54.11 54.52 58.08 60.84 60.67 58.57 61.47
45.27 49.09 57.41 52.36 40.60 40.76 43.91 46.35 48.70 47.63 47.67 47.55 47.36 47.56 46.89 43.77 42.05 43.31 44.91 49.80 49.79 47.80 44.54 47.52 41.94 37.70 40.97 45.05 47.12 44.80 46.86 47.22 45.75 43.02 41.71 41.65 45.22 53.40 53.55 53.33 54.29 57.79 55.84 56.90 59.77
48.87 43.97 46.21 48.05 45.20 41.52 41.25 43.24 44.55 49.58 48.14 48.18 46.90 47.19 45.66 43.97 43.22 43.89 45.84 50.48 52.97 51.48 61.90 53.23 40.59 40.04 37.49 41.42 43.80 44.83 46.82 47.00 44.54 41.14 45.58 44.62 47.44 49.89 52.59 54.43 54.35 55.64 56.46 56.19 58.57
46.24 43.04 43.85 39.31 40.81 41.73 40.48 42.91 44.62 44.49 47.88 48.19 47.34 47.72 45.48 42.39 44.73 44.64 47.24 48.36 50.77 55.33 51.55 45.71 39.89 39.69 43.19 45.02 46.09 46.26 46.82 46.86 44.16 44.63 43.59 48.64 47.21 49.49 51.73 55.78 56.03 55.68 56.94 56.91 56.49
43.41 41.65 42.57 40.80 41.29 40.88 40.67 41.25 44.19 46.18 45.25 45.09 45.28 48.11 45.96 40.86 43.94 43.16 45.20 44.87 44.42 49.29 48.05 46.18 42.53 41.19 41.76 45.54 46.43 46.56 48.40 48.54 46.47 46.90 48.11 48.75 49.47 51.89 56.45 55.68 57.25 58.98 57.05 58.55 58.45
46.50 47.57 43.43 41.13 39.82 39.25 39.38 42.70 45.84 46.93 48.01 49.81 48.73 46.87 46.22 48.19 50.17 50.82 47.65 46.94 46.15 45.55 45.07 43.95 41.92 41.01 38.47 44.01 44.59 42.20 45.32 46.15 46.42 46.86 47.29 45.54 49.47 54.87 52.68 54.55 55.24 58.95 59.57 59.30 59.48
MSLP
1018.26 1017.82 1017.30 1016.90 1016.42 1016.11 1015.98 1015.89 1015.52 1014.80 1014.42 1014.41 1014.16 1013.74 1013.92 1013.69 1012.70 1012.62 1011.29 1009.88 1010.19 1010.30 1010.21 1010.41 1011.05 1011.73 1012.76 1013.65 1013.37 1013.49 1013.20 1011.75 1009.85 1008.93 1008.56 1007.95 1008.25 1009.08 1009.42 1010.31 1010.93 1011.12 1012.03 1013.05 1013.79
1018.32 1017.89 1017.39 1016.85 1016.42 1015.96 1015.76 1015.67 1015.37 1014.75 1014.14 1014.15 1013.96 1013.63 1013.53 1013.42 1012.78 1010.97 1008.63 1008.53 1009.29 1009.91 1010.26 1010.23 1011.30 1012.04 1013.44 1014.09 1013.69 1013.25 1012.36 1010.23 1008.34 1007.86 1007.71 1007.77 1008.01 1008.86 1009.96 1010.83 1011.45 1011.91 1012.60 1013.20 1013.76
1018.20 1017.72 1017.43 1016.90 1016.33 1015.87 1015.57 1015.44 1015.24 1014.66 1014.04 1013.72 1013.72 1013.50 1013.18 1013.13 1012.16 1009.30 1007.57 1007.84 1009.11 1009.45 1010.06 1010.30 1010.10 1010.87 1012.24 1012.82 1012.69 1012.17 1010.49 1008.29 1007.80 1007.24 1007.27 1007.67 1008.40 1008.80 1009.84 1011.09 1011.16 1011.88 1012.59 1013.19 1013.83
1018.46 1017.77 1017.10 1016.79 1016.24 1015.70 1015.28 1015.10 1014.97 1014.58 1014.04 1013.44 1013.33 1013.27 1012.84 1012.70 1010.70 1008.12 1007.56 1007.76 1008.81 1009.52 1009.89 1010.72 1010.92 1011.25 1011.50 1011.85 1011.40 1010.77 1009.01 1007.55 1007.16 1006.77 1007.13 1007.59 1008.57 1009.39 1009.46 1010.48 1011.17 1011.51 1012.32 1013.05 1013.44
1018.36 1017.90 1017.27 1016.52 1016.06 1015.54 1015.03 1014.71 1014.54 1014.38 1013.91 1013.34 1012.94 1012.97 1012.69 1011.57 1008.83 1007.51 1007.97 1008.20 1008.18 1008.74 1008.58 1008.99 1009.97 1010.81 1010.58 1009.98 1009.48 1009.10 1007.48 1006.95 1006.52 1006.68 1007.04 1007.31 1008.44 1009.09 1009.98 1010.49 1011.04 1011.62 1012.36 1012.66 1012.99
1018.15 1017.63 1017.14 1016.57 1015.84 1015.24 1014.74 1014.30 1014.12 1013.89 1013.72 1013.22 1012.75 1012.77 1012.30 1010.13 1007.20 1007.25 1007.91 1008.81 1008.34 1008.10 1008.12 1008.61 1009.25 1009.26 1009.41 1008.50 1007.84 1007.55 1007.38 1007.11 1006.75 1006.93 1007.34 1007.90 1008.97 1009.24 1010.51 1010.61 1010.98 1011.29 1011.73 1012.16 1012.41
1018.24 1017.52 1016.85 1016.25 1015.63 1014.95 1014.26 1013.76 1013.50 1013.36 1013.32 1013.07 1012.66 1012.53 1011.55 1008.33 1006.78 1007.40 1007.70 1008.12 1007.96 1007.84 1008.29 1008.13 1008.46 1009.17 1008.75 1007.70 1007.72 1007.41 1007.63 1007.23 1007.31 1007.57 1008.19 1008.32 1009.78 1009.83 1010.23 1010.50 1010.90 1011.20 1011.40 1011.58 1011.82
1018.10 1017.51 1016.79 1016.02 1015.23 1014.48 1013.77 1013.10 1012.75 1012.68 1012.72 1012.73 1012.66 1012.22 1009.90 1006.62 1006.78 1007.79 1008.19 1008.41 1008.38 1008.17 1008.09 1007.16 1008.26 1009.21 1008.89 1007.76 1007.71 1007.88 1008.21 1008.39 1007.86 1007.80 1008.06 1008.47 1009.96 1010.10 1010.28 1010.40 1010.84 1011.07 1011.12 1011.26 1011.50
1017.95 1017.23 1016.58 1015.87 1015.04 1014.17 1013.16 1012.32 1011.84 1011.78 1012.26 1012.41 1012.60 1011.86 1009.01 1007.20 1007.46 1006.77 1007.20 1007.19 1007.58 1008.31 1008.41 1008.36 1009.09 1009.50 1008.36 1008.21 1008.49 1008.72 1008.66 1008.42 1008.05 1007.64 1008.09 1008.40 1009.88 1010.05 1010.02 1010.17 1010.57 1010.79 1010.90 1011.09 1011.47
1017.73 1017.02 1016.20 1015.43 1014.81 1013.91 1012.77 1011.61 1011.12 1011.24 1012.00 1012.00 1011.38 1011.31 1008.24 1006.18 1005.73 1005.98 1006.23 1006.24 1007.07 1007.63 1008.95 1009.77 1009.82 1009.01 1008.51 1008.27 1008.58 1008.57 1008.40 1008.14 1007.59 1007.74 1008.36 1008.40 1008.99 1009.46 1009.55 1009.71 1009.98 1010.38 1010.72 1010.97 1011.09
1017.65 1016.81 1015.94 1014.98 1014.34 1013.74 1012.62 1011.42 1011.38 1011.13 1010.75 1010.00 1009.48 1008.48 1006.60 1005.58 1004.95 1005.21 1005.11 1005.71 1006.03 1006.30 1007.15 1006.99 1008.29 1007.54 1006.61 1006.36 1006.60 1007.36 1007.11 1007.05 1006.38 1006.99 1008.07 1008.10 1008.44 1008.77 1009.11 1009.27 1009.46 1009.95 1010.35 1010.64 1010.69
1017.54 1016.68 1015.68 1014.61 1013.66 1013.37 1013.11 1012.14 1010.33 1009.77 1009.16 1008.11 1007.66 1007.15 1005.93 1005.89 1005.95 1004.69 1004.67 1005.67 1005.96 1006.51 1006.70 1006.96 1006.68 1005.65 1005.44 1005.17 1005.06 1005.97 1006.26 1006.15 1006.10 1006.41 1007.87 1008.53 1008.14 1008.26 1008.44 1008.30 1008.52 1008.95 1009.63 1009.96 1010.28
1017.41 1016.55 1015.58 1014.28 1013.01 1012.91 1012.26 1010.80 1009.28 1009.18 1009.05 1006.69 1005.69 1005.18 1004.88 1005.48 1005.16 1004.13 1004.30 1004.38 1005.31 1006.02 1006.33 1006.55 1005.24 1005.03 1005.04 1004.16 1004.25 1004.89 1004.86 1004.90 1005.25 1006.39 1007.65 1008.15 1008.88 1008.35 1007.79 1007.84 1007.99 1008.27 1008.29 1008.78 1009.10
1017.18 1016.44 1015.73 1014.24 1012.80 1012.93 1011.24 1009.52 1008.84 1008.64 1009.08 1006.53 1004.90 1003.33 1003.64 1003.97 1004.05 1003.29 1003.42 1004.20 1004.84 1005.40 1005.84 1005.84 1004.65 1004.54 1004.08 1003.80 1003.96 1003.42 1002.84 1003.41 1004.92 1006.65 1007.53 1007.84 1008.65 1007.74 1007.21 1007.24 1007.45 1007.51 1007.77 1007.98 1008.23
1016.85 1016.24 1015.76 1015.59 1014.82 1013.17 1010.64 1009.48 1008.95 1008.92 1008.65 1005.03 1003.56 1001.89 1002.55 1003.29 1003.06 1002.63 1002.71 1003.62 1004.33 1005.05 1005.80 1005.26 1004.96 1004.33 1003.97 1003.47 1003.78 1003.51 1002.81 1002.92 1004.35 1006.05 1006.89 1007.69 1007.86 1006.10 1006.67 1006.64 1006.34 1006.24 1006.50 1006.62 1006.90
1016.28 1015.90 1015.66 1015.10 1014.70 1011.62 1010.44 1009.71 1009.41 1010.09 1007.77 1005.20 1003.52 1003.38 1003.44 1003.60 1003.21 1002.83 1002.86 1003.24 1003.80 1004.78 1005.11 1005.08 1004.22 1004.10 1003.17 1002.66 1003.12 1003.14 1003.23 1003.62 1004.72 1006.16 1006.93 1006.39 1006.86 1005.68 1005.09 1003.92 1004.40 1004.79 1005.04 1005.26 1005.94
1015.62 1014.86 1015.44 1014.41 1012.51 1010.64 1010.60 1010.45 1011.10 1010.37 1007.78 1006.78 1005.52 1004.64 1004.19 1004.00 1003.84 1003.68 1003.72 1004.13 1004.78 1005.60 1005.86 1005.10 1004.25 1003.43 1003.06 1003.12 1002.30 1003.12 1004.35 1005.18 1006.46 1007.14 1006.74 1005.38 1005.59 1003.25 1002.14 1002.06 1001.99 1002.60 1003.39 1003.91 1004.57
1014.85 1013.79 1013.44 1012.52 1011.16 1011.24 1011.39 1011.84 1011.75 1010.17 1008.80 1007.52 1006.72 1005.64 1005.46 1005.31 1004.83 1004.49 1004.53 1004.83 1004.63 1005.15 1005.82 1005.70 1004.62 1003.36 1002.66 1002.97 1003.09 1003.18 1004.36 1005.64 1006.72 1007.61 1006.58 1005.04 1003.91 1001.43 1000.22 1000.24 1000.56 1001.08 1001.81 1002.81 1003.69
1014.23 1013.22 1012.82 1010.62 1010.80 1011.63 1012.35 1012.85 1011.91 1010.26 1009.14 1008.33 1007.16 1006.78 1006.59 1006.49 1006.03 1005.49 1005.66 1005.51 1005.06 1005.28 1005.40 1005.18 1004.38 1002.94 1002.48 1002.07 1002.70 1002.73 1003.82 1004.07 1005.78 1006.93 1007.07 1004.91 1002.88 1000.70 999.26 999.85 1000.30 1000.87 1001.64 1002.17 1002.68
1015.22 1014.11 1012.25 1009.57 1010.35 1011.69 1012.87 1013.24 1011.62 1009.90 1009.00 1008.37 1008.45 1007.97 1008.00 1007.36 1007.04 1006.89 1006.25 1005.57 1005.52 1005.41 1005.57 1005.13 1004.63 1002.98 1001.82 1001.83 1001.78 1002.33 1002.28 1004.15 1005.74 1006.72 1006.90 1005.17 1003.41 1001.59 1000.10 999.92 1000.12 1000.59 1000.95 1001.32 1001.61
1015.07 1013.92 1010.67 1009.64 1010.61 1012.50 1013.82 1012.94 1011.24 1009.51 1008.81 1008.34 1008.37 1008.53 1008.47 1008.42 1008.10 1007.76 1006.79 1006.10 1005.92 1005.46 1005.50 1005.27 1005.38 1003.83 1002.77 1002.24 1002.21 1002.32 1002.63 1003.55 1004.68 1005.55 1005.87 1005.18 1003.31 1000.35 999.82 999.48 999.43 999.51 999.88 1000.26 1000.74
1016.28 1014.50 1010.64 1010.19 1012.07 1013.49 1013.92 1012.53 1010.90 1010.08 1009.08 1008.62 1008.39 1008.69 1008.96 1008.74 1008.51 1008.17 1007.61 1007.18 1006.51 1006.33 1006.26 1005.92 1005.94 1005.66 1003.98 1002.16 1001.35 1001.51 1002.12 1002.83 1004.08 1004.80 1004.91 1003.73 1001.66 999.40 998.98 998.63 998.11 998.60 999.21 999.85 1000.11
1018.10 1015.91 1011.68 1011.53 1014.42 1015.26 1014.28 1012.96 1011.86 1010.80 1010.19 1009.61 1009.41 1009.40 1009.27 1009.47 1009.35 1008.37 1007.60 1007.17 1006.70 1006.82 1006.85 1006.63 1006.73 1006.56 1004.74 1002.84 1001.86 1001.97 1001.88 1001.91 1002.54 1003.14 1003.70 1003.41 1000.88 998.71 998.26 998.03 997.83 998.15 998.89 999.28 999.72
1018.37 1017.36 1015.41 1014.98 1015.88 1016.25 1015.55 1014.16 1012.82 1011.33 1010.65 1010.22 1009.97 1009.65 1009.77 1009.83 1009.62 1009.20 1008.36 1007.58 1007.71 1007.66 1007.41 1007.13 1007.58 1007.63 1007.22 1005.70 1004.51 1003.45 1002.41 1002.28 1002.31 1002.68 1002.49 1001.51 1000.35 999.03 998.39 998.06 998.09 997.93 998.31 998.84 999.33
1019.27 1019.92 1019.41 1018.95 1017.44 1017.31 1016.46 1015.29 1014.23 1013.03 1012.18 1011.55 1011.01 1011.38 1011.72 1011.29 1010.61 1010.33 1009.63 1008.91 1008.58 1008.11 1008.33 1008.18 1008.14 1007.92 1007.10 1005.89 1004.88 1003.86 1002.70 1001.97 1001.91 1001.67 1001.81 1000.42 999.84 998.20 997.67 997.23 997.52 997.12 997.68 998.51 998.96
1021.03 1021.03 1020.44 1019.90 1018.98 1018.23 1017.07 1016.41 1015.58 1014.42 1013.81 1012.91 1012.89 1012.44 1012.18 1012.22 1011.90 1011.25 1010.90 1010.40 1009.74 1008.96 1009.31 1008.97 1008.79 1008.33 1007.20 1006.03 1005.05 1003.52 1002.17 1001.32 1001.01 1000.43 1000.00 999.40 998.33 996.60 996.16 996.03 996.62 996.84 998.26 997.78 998.14
1022.48 1021.95 1021.92 1020.87 1019.94 1019.01 1018.18 1017.59 1016.60 1015.92 1014.45 1013.95 1013.57 1012.99 1012.46 1012.08 1011.67 1011.04 1010.70 1010.44 1010.04 1009.81 1009.91 1009.69 1009.42 1009.42 1007.95 1006.80 1005.42 1003.83 1001.61 1001.16 1000.56 999.84 999.44 998.91 997.61 996.68 996.15 995.54 995.60 995.87 997.03 997.96 997.83
Wind_Speed
16 16 17 16 17 16 14 13 13 14 12 11 11 11 8 8 13 3 6 7 8 18 15 13 5 10 9 3 2 5 3 3 5 7 4 9 16 16 12 16 14 4 14 16 16
17 17 17 17 17 17 16 14 13 14 15 12 11 10 9 8 3 7 5 12 13 18 17 20 9 9 4 3 3 1 1 6 5 6 6 8 12 17 14 15 12 13 14 16 18
19 19 17 17 18 17 17 15 14 15 15 14 11 10 8 5 2 7 6 13 19 22 7 4 9 8 6 4 6 5 6 6 11 9 9 6 13 19 19 14 19 22 21 19 19
18 19 19 18 18 18 18 16 15 15 14 14 12 9 9 3 1 3 9 11 10 9 13 11 5 3 5 7 8 5 14 5 8 7 9 12 18 13 16 12 19 21 21 18 18
18 17 18 19 18 18 17 17 15 14 13 12 12 9 1 3 7 6 8 3 2 3 4 5 5 5 3 5 5 9 2 6 7 9 6 14 12 12 14 16 16 18 18 19 18
20 19 18 18 19 19 18 17 15 14 11 10 10 7 1 4 2 13 13 6 5 2 4 3 5 6 3 5 4 5 3 2 5 8 8 17 15 10 11 16 14 13 11 13 18
20 20 20 20 20 20 20 19 17 14 10 7 7 3 1 12 7 12 15 10 6 9 6 5 5 3 4 6 2 2 7 5 5 2 4 15 7 14 15 15 15 13 11 10 12
21 21 21 22 22 21 21 21 19 15 9 7 6 2 8 2 13 14 11 4 7 8 9 9 4 2 3 7 4 3 6 4 3 3 2 6 6 12 16 16 14 14 12 10 8
22 22 22 22 22 22 23 24 19 10 6 8 4 3 10 10 11 16 16 12 19 13 12 7 4 4 1 2 5 6 3 4 3 4 3 4 6 15 17 15 15 13 12 7 9
23 23 23 23 22 22 25 17 7 4 5 6 4 2 5 8 8 11 17 17 9 17 14 11 6 9 0 4 7 6 5 5 8 5 3 6 7 19 18 16 15 11 9 12 12
24 25 25 26 24 19 14 4 6 5 0 8 8 6 5 3 2 6 11 8 9 3 5 3 4 7 15 15 12 12 9 11 10 10 6 10 10 17 16 14 13 10 11 12 13
25 25 26 28 27 22 2 2 6 5 9 12 12 13 14 5 6 12 7 7 5 8 4 6 7 16 10 16 10 17 15 19 8 9 4 5 13 13 15 16 13 16 16 16 13
25 25 26 30 31 0 3 6 9 4 2 10 11 11 8 12 11 15 9 10 8 7 7 7 16 13 11 15 5 13 20 17 12 7 1 7 5 5 10 13 13 15 19 18 20
25 24 24 32 4 6 7 9 11 2 5 10 4 10 8 8 6 9 10 8 2 9 7 8 9 8 15 11 3 10 4 9 14 7 7 7 6 10 15 16 16 17 16 18 20
26 24 21 7 5 4 7 13 10 7 3 4 5 1 6 12 6 6 6 4 8 10 4 12 9 12 9 10 2 13 7 2 10 10 5 12 2 8 11 15 19 21 20 21 21
28 23 17 3 2 10 9 11 6 8 5 9 4 3 7 2 5 4 4 3 3 5 4 9 5 4 9 14 4 9 7 5 6 5 2 9 10 5 16 27 22 23 23 23 21
29 25 7 3 6 4 7 6 7 4 7 10 7 8 3 7 5 7 8 6 6 1 6 8 8 7 4 7 14 3 7 4 5 5 7 4 4 13 26 23 27 28 24 23 22
30 26 6 7 6 4 5 7 3 5 2 6 6 9 7 8 6 5 2 10 7 8 5 8 13 6 8 8 11 10 9 7 5 2 8 5 6 9 18 25 25 24 24 22 21
26 3 2 6 6 3 7 5 7 3 3 8 11 6 6 5 3 9 5 4 5 4 10 7 10 9 6 10 10 13 5 10 6 1 3 6 12 8 6 19 19 20 17 20 22
4 4 5 5 8 6 7 4 5 3 6 4 3 3 5 8 8 6 3 1 9 10 1 7 6 8 16 4 5 9 6 2 3 2 4 6 6 8 6 12 15 18 19 18 21
3 5 6 3 6 7 3 7 6 9 5 3 3 3 4 3 3 4 4 7 12 10 11 2 4 10 3 5 10 5 3 1 4 6 7 4 8 7 7 10 18 21 21 17 19
4 3 4 4 5 2 1 4 5 8 9 5 3 4 3 5 3 2 1 3 11 5 9 4 1 3 10 11 7 8 9 8 7 9 5 5 11 6 10 16 17 19 17 11 17
3 4 6 7 5 5 8 6 4 11 8 7 7 4 2 4 6 4 1 5 6 8 5 6 4 6 14 11 5 1 5 8 4 4 8 6 9 4 4 7 12 17 12 14 15
3 6 7 6 2 3 6 6 10 8 7 6 4 5 7 7 2 6 8 8 13 10 7 1 0 6 7 10 5 8 7 4 4 4 9 10 11 9 8 4 6 10 16 15 14
5 2 0 6 6 6 3 3 9 10 8 9 9 11 6 6 9 7 7 13 14 7 9 3 3 2 8 9 5 6 10 9 4 6 6 11 12 10 11 9 14 14 15 12 10
4 4 5 4 5 7 6 6 9 16 6 9 9 12 6 2 3 10 7 9 6 5 8 5 5 6 6 5 8 13 14 13 6 5 6 7 14 8 8 7 8 9 9 17 17
4 5 3 6 6 4 0 6 13 13 8 8 12 9 10 12 19 15 8 9 9 6 3 3 3 5 7 6 6 9 7 3 7 6 6 5 11 16 8 10 10 13 13 13 17
Wind_Direction
0 356 349 346 342 342 342 343 337 327 326 328 325 319 329 322 299 185 224 190 181 177 153 142 68 87 69 61 253 109 70 277 170 106 128 95 120 147 124 132 154 195 138 149 142
357 354 350 345 341 337 336 337 333 326 323 325 321 316 322 332 271 263 249 148 161 178 146 144 142 129 76 114 274 336 32 244 164 144 137 130 119 136 133 147 124 110 126 148 142
349 348 347 342 338 334 331 329 328 323 322 320 319 316 313 314 198 231 195 183 162 171 132 147 138 127 142 155 194 208 244 127 137 161 134 148 116 133 125 143 146 147 153 151 150
348 342 338 339 335 330 325 323 322 319 320 315 316 316 312 208 174 205 186 203 153 168 158 145 103 68 135 186 196 230 245 158 171 150 147 165 129 148 142 156 149 156 157 157 165
345 341 337 333 331 326 320 317 316 316 316 311 310 321 277 340 252 138 161 171 212 148 182 132 100 127 227 212 201 232 94 127 148 137 142 125 143 130 133 146 147 161 163 170 176
341 339 335 331 328 325 320 314 311 309 307 302 300 318 329 305 132 149 145 147 245 132 252 166 144 202 269 253 156 164 56 71 146 118 110 115 122 115 149 146 158 170 187 177 181
340 337 334 330 328 323 319 311 307 302 296 284 276 270 17 238 171 160 163 178 204 187 212 237 147 46 323 301 114 331 74 25 123 109 81 109 104 142 156 157 165 187 202 194 189
339 335 332 328 326 322 315 310 304 295 276 252 217 234 252 209 143 155 183 220 227 215 209 256 167 317 190 311 37 45 67 68 279 160 240 109 195 157 166 165 178 193 206 203 180
337 334 330 327 325 321 315 309 300 287 177 142 129 189 269 101 160 196 174 195 197 219 244 263 62 216 301 157 29 12 212 202 214 252 149 120 135 180 176 174 184 200 206 175 158
335 332 329 326 324 321 316 300 275 320 164 187 255 325 274 227 195 187 200 220 182 199 227 215 246 235 50 93 207 204 243 233 191 209 256 138 176 172 183 180 189 198 183 170 170
334 332 328 324 323 323 337 17 14 15 222 197 198 233 282 281 359 231 206 201 244 337 276 267 193 221 237 211 208 197 215 228 220 185 156 195 165 182 191 192 187 191 177 183 185
333 331 327 324 321 324 174 24 228 214 301 233 228 229 256 90 308 272 149 174 188 233 274 341 264 271 285 291 208 186 218 247 292 137 138 207 193 191 191 198 195 183 181 188 190
331 330 329 324 319 254 223 225 285 327 267 282 212 214 209 148 217 257 150 191 190 224 237 199 258 301 284 308 321 198 203 234 222 126 251 120 327 205 214 199 203 201 190 187 185
329 328 332 326 10 329 293 287 326 113 44 278 254 251 180 153 258 225 187 180 153 213 246 235 271 285 307 298 327 316 264 173 186 120 199 168 231 218 213 206 205 205 199 194 193
325 327 330 324 294 323 262 323 320 55 9 253 231 234 166 158 162 252 207 157 207 254 124 266 275 282 290 270 337 273 292 175 173 175 124 203 111 255 191 212 207 208 207 203 194
321 323 332 116 221 242 313 301 47 44 265 345 7 316 102 191 242 264 209 98 188 214 237 235 247 228 249 287 228 271 303 10 54 135 355 193 200 256 193 208 203 209 209 204 198
319 314 300 268 238 321 331 34 47 135 327 344 329 330 265 194 254 179 218 239 196 197 288 298 266 264 227 311 301 71 48 342 349 9 225 238 126 234 209 204 198 200 205 204 197
321 313 202 216 248 351 34 52 112 264 360 298 332 337 36 17 343 325 183 223 229 177 209 225 277 246 252 193 244 271 159 161 214 247 267 286 245 271 206 198 203 199 199 198 196
319 338 267 259 203 107 67 72 208 257 334 340 330 17 339 23 321 32 347 237 303 186 196 169 260 271 213 237 143 279 239 192 136 148 43 268 300 301 206 193 197 200 195 194 198
346 342 279 256 128 63 71 250 266 266 315 358 5 6 327 323 39 20 316 171 354 38 91 278 264 226 255 138 254 158 217 245 355 187 249 287 279 247 164 193 196 197 197 195 200
24 31 259 123 74 50 135 237 282 280 259 234 281 305 308 5 353 357 302 310 25 337 345 251 178 276 340 176 220 298 286 145 128 140 178 260 264 220 239 186 195 197 199 191 194
0 41 295 55 46 32 166 243 270 337 357 357 69 32 36 317 322 304 359 265 347 355 336 300 233 329 251 271 213 179 214 207 207 265 236 176 263 235 242 217 185 189 191 185 181
49 277 322 75 62 338 309 305 1 7 333 2 350 48 343 2 347 306 297 300 347 1 347 313 338 342 341 350 21 310 239 200 191 91 202 188 260 302 344 193 198 172 181 176 179
44 13 334 34 96 34 346 315 329 317 315 334 290 355 0 335 252 280 322 0 6 331 353 185 195 165 205 231 256 298 298 252 178 124 229 216 248 283 293 240 230 186 183 183 174
33 4 347 327 329 337 343 310 345 355 8 16 359 25 35 329 335 20 338 336 343 1 3 48 262 276 271 256 278 270 295 302 205 210 172 268 209 233 220 209 232 193 184 174 179
59 30 343 274 295 343 352 356 354 337 343 340 3 342 354 304 258 305 316 329 254 350 345 331 280 347 288 320 331 308 297 291 239 267 271 254 257 194 210 156 167 171 199 191 192
327 334 84 299 339 22 286 333 339 6 310 359 331 334 333 336 319 299 240 241 241 271 293 254 33 352 274 351 329 316 261 347 297 261 221 285 285 293 253 207 188 160 167 211 201